User: anonymous
Location: Sandbanks Provincial Park
(47.6073°N, 57.6428°W)
Time: 21:05:53
(UTC-02:-30)
Language:

Cosmos 2034 Rocket - Orbit

View from above orbital plane
View from above orbital plane
View from above satellite
View from above satellite

Ground track
Ground track

The orbit data is extracted from the following two-line orbital elements,

1 20150U 89059B   14233.34867187  .00000047  00000-0  33197-4 0   153
2 20150 082.9416 138.8225 0027540 281.3006 209.2990 13.75583485258664
Epoch (UTC): 21 August 2014 08:22:05
Eccentricity: 0.0027540
inclination: 82.9416°
perigee height: 959 km
apogee height: 1000 km
right ascension of ascending node: 138.8225°
argument of perigee: 281.3006°
revolutions per day: 13.75583485
mean anomaly at epoch: 209.2990°
orbit number at epoch: 25866

The dashed part of the orbit path shows where the satellite is in the earth's shadow,  

DLR